| time (UTC) | temp C | wind direction | speed KPH | gust KPH | rain 1hr cm | rain 24hr cm | rain mn cm | humidity % | barometer mb |
| 20260906213037 | 23 | 253 | 0.0 | 3.2 | 1.57 | 1.60 | 1.60 | 93 | 1011.1 |
| 20260906212536 | 24 | 117 | 0.0 | 0.0 | 1.57 | 1.57 | 1.57 | 94 | 1011.0 |
| 20260906212034 | 24 | 221 | 0.0 | 0.0 | 1.55 | 1.55 | 1.55 | 94 | 1010.7 |
| 20260906211535 | 24 | 216 | 0.0 | 0.0 | 1.50 | 1.50 | 1.50 | 93 | 1010.6 |
| 20260906211032 | 24 | 313 | 0.0 | 0.0 | 1.42 | 1.42 | 1.42 | 93 | 1010.4 |
| 20260906210530 | 25 | 316 | 0.0 | 0.0 | 1.32 | 1.32 | 1.32 | 92 | 1010.4 |
| 20260906210030 | 25 | 351 | 0.0 | 1.6 | 1.07 | 1.07 | 1.07 | 92 | 1010.5 |
| 20260906205529 | 25 | 314 | 0.0 | 1.6 | 0.71 | 0.71 | 0.71 | 90 | 1010.4 |
| 20260906205026 | 26 | 256 | 0.0 | 0.0 | 0.36 | 0.36 | 0.36 | 89 | 1010.7 |
| 20260906204543 | 26 | 242 | 0.0 | 0.0 | 0.18 | 0.18 | 0.18 | 88 | 1010.6 |
| 20260906204024 | 27 | 320 | 0.0 | 9.7 | 0.10 | 0.10 | 0.10 | 86 | 1010.5 |
| 20260906203523 | 27 | 308 | 0.0 | 9.7 | 0.05 | 0.05 | 0.05 | 84 | 1010.1 |
| 20260906203023 | 28 | 322 | 0.0 | 3.2 | 0.00 | 0.00 | 0.00 | 83 | 1009.8 |
| 20260906202522 | 29 | 290 | 0.0 | 12.9 | 0.00 | 0.00 | 0.00 | 81 | 1009.7 |
| 20260906202021 | 30 | 298 | 0.0 | 12.9 | 0.00 | 0.00 | 0.00 | 79 | 1009.6 |
| 20260906201520 | 31 | 345 | 0.0 | 3.2 | 0.00 | 0.00 | 0.00 | 77 | 1009.4 |
| 20260906201019 | 31 | 300 | 0.0 | 6.4 | 0.00 | 0.00 | 0.00 | 77 | 1009.3 |
| 20260906200518 | 31 | 317 | 0.0 | 12.9 | 0.00 | 0.00 | 0.00 | 76 | 1009.4 |
| 20260906200018 | 32 | 336 | 0.0 | 12.9 | 0.00 | 0.00 | 0.00 | 79 | 1009.6 |
| 20260906195516 | 32 | 302 | 0.0 | 12.9 | 0.00 | 0.20 | 0.00 | 77 | 1009.3 |
| 20260906195015 | 33 | 217 | 0.0 | 12.9 | 0.00 | 0.20 | 0.00 | 74 | 1009.7 |
| 20260906194514 | 35 | 253 | 0.0 | 4.8 | 0.00 | 0.20 | 0.00 | 69 | 1009.9 |
| 20260906194014 | 35 | 153 | 0.0 | 1.6 | 0.00 | 0.20 | 0.00 | 67 | 1009.8 |
| 20260906193513 | 35 | 266 | 0.0 | 1.6 | 0.00 | 0.20 | 0.00 | 68 | 1009.7 |
| 20260906193011 | 35 | 229 | 0.0 | 1.6 | 0.00 | 0.20 | 0.00 | 67 | 1009.7 |
| 20260906192509 | 35 | 234 | 0.0 | 1.6 | 0.00 | 0.20 | 0.00 | 68 | 1009.9 |
| 20260906192007 | 35 | 92 | 0.0 | 1.6 | 0.00 | 0.20 | 0.00 | 66 | 1009.9 |
| 20260906191507 | 35 | 254 | 0.0 | 3.2 | 0.00 | 0.20 | 0.00 | 68 | 1009.9 |
| 20260906191003 | 35 | 238 | 0.0 | 3.2 | 0.00 | 0.20 | 0.00 | 69 | 1009.9 |
| 20260906190502 | 35 | 88 | 0.0 | 4.8 | 0.00 | 0.20 | 0.00 | 66 | 1010.1 |
| 20260906190002 | 35 | 252 | 0.0 | 4.8 | 0.00 | 1.68 | 0.00 | 65 | 1010.3 |
| 20260906185559 | 35 | 179 | 0.0 | 3.2 | 0.00 | 1.68 | 0.00 | 69 | 1010.2 |
| 20260906185059 | 35 | 288 | 0.0 | 3.2 | 0.00 | 1.68 | 0.00 | 69 | 1010.2 |
| 20260906184558 | 35 | 267 | 0.0 | 6.4 | 0.00 | 1.68 | 0.00 | 70 | 1010.4 |
| 20260906184055 | 35 | 311 | 0.0 | 6.4 | 0.00 | 1.68 | 0.00 | 70 | 1010.3 |
| 20260906183555 | 35 | 299 | 0.0 | 6.4 | 0.00 | 1.68 | 0.00 | 67 | 1010.4 |
| 20260906183054 | 35 | 314 | 0.0 | 3.2 | 0.00 | 1.68 | 0.00 | 72 | 1010.6 |
| 20260906182652 | 35 | 208 | 0.0 | 4.8 | 0.00 | 1.68 | 0.00 | 69 | 1010.5 |
| 20260906182049 | 35 | 253 | 0.0 | 4.8 | 0.00 | 1.68 | 0.00 | 72 | 1010.5 |
| 20260906181550 | 35 | 302 | 0.0 | 6.4 | 0.00 | 1.68 | 0.00 | 67 | 1010.7 |
| 20260906181046 | 35 | 246 | 0.0 | 4.8 | 0.00 | 1.68 | 0.00 | 72 | 1010.8 |
| 20260906180545 | 35 | 248 | 0.0 | 4.8 | 0.00 | 1.68 | 0.00 | 70 | 1010.8 |
| 20260906180058 | 35 | 278 | 0.0 | 3.2 | 0.00 | 1.68 | 0.00 | 71 | 1010.8 |
| 20260906175540 | 35 | 259 | 0.0 | 3.2 | 0.00 | 1.68 | 0.00 | 69 | 1011.1 |
| 20260906175038 | 35 | 172 | 0.0 | 3.2 | 0.00 | 1.68 | 0.00 | 71 | 1011.1 |
| 20260906174537 | 35 | 160 | 0.0 | 3.2 | 0.00 | 1.68 | 0.00 | 69 | 1011.2 |
| 20260906174035 | 34 | 111 | 0.0 | 1.6 | 0.00 | 1.68 | 0.00 | 72 | 1011.0 |
| 20260906173532 | 34 | 290 | 0.0 | 9.7 | 0.00 | 1.68 | 0.00 | 74 | 1011.2 |
| 20260906173032 | 34 | 231 | 0.0 | 9.7 | 0.00 | 1.68 | 0.00 | 71 | 1011.3 |
| 20260906172530 | 34 | 342 | 0.0 | 1.6 | 0.00 | 1.68 | 0.00 | 75 | 1011.4 |
| 20260906172028 | 33 | 89 | 0.0 | 1.6 | 0.00 | 1.68 | 0.00 | 73 | 1011.4 |
| 20260906171526 | 33 | 228 | 0.0 | 4.8 | 0.00 | 1.68 | 0.00 | 75 | 1011.4 |
| 20260906171024 | 33 | 244 | 0.0 | 4.8 | 0.00 | 1.68 | 0.00 | 76 | 1011.5 |
| 20260906170522 | 33 | 156 | 0.0 | 3.2 | 0.00 | 1.68 | 0.00 | 77 | 1011.7 |
| 20260906170021 | 33 | 247 | 0.0 | 1.6 | 0.00 | 1.68 | 0.00 | 76 | 1011.7 |
| 20260906165520 | 33 | 282 | 0.0 | 8.0 | 0.00 | 1.68 | 0.00 | 75 | 1011.7 |
| 20260906165019 | 33 | 249 | 0.0 | 8.0 | 0.00 | 1.68 | 0.00 | 77 | 1011.7 |
| 20260906164517 | 33 | 218 | 1.6 | 8.0 | 0.00 | 1.68 | 0.00 | 74 | 1011.7 |
| 20260906164016 | 33 | 281 | 0.0 | 3.2 | 0.00 | 1.68 | 0.00 | 76 | 1011.8 |
| 20260906163514 | 33 | 122 | 0.0 | 4.8 | 0.00 | 1.68 | 0.00 | 78 | 1011.8 |
| 20260906163012 | 33 | 245 | 0.0 | 1.6 | 0.00 | 1.68 | 0.00 | 78 | 1011.8 |
| 20260906162513 | 32 | 245 | 0.0 | 1.6 | 0.00 | 1.68 | 0.00 | 78 | 1011.9 |
| 20260906162012 | 32 | 269 | 0.0 | 3.2 | 0.00 | 1.68 | 0.00 | 80 | 1011.9 |
| 20260906161515 | 32 | 191 | 0.0 | 3.2 | 0.00 | 1.68 | 0.00 | 79 | 1011.8 |
| 20260906161011 | 32 | 238 | 0.0 | 3.2 | 0.00 | 1.68 | 0.00 | 80 | 1012.0 |
| 20260906160508 | 32 | 227 | 0.0 | 3.2 | 0.00 | 1.68 | 0.00 | 80 | 1012.0 |
| 20260906160006 | 33 | 236 | 0.0 | 1.6 | 0.00 | 1.68 | 0.00 | 81 | 1012.1 |
| 20260906155505 | 32 | 235 | 0.0 | 1.6 | 0.00 | 1.68 | 0.00 | 81 | 1012.1 |
| 20260906155004 | 32 | 100 | 0.0 | 1.6 | 0.00 | 1.68 | 0.00 | 79 | 1012.2 |
| 20260906154501 | 32 | 244 | 0.0 | 1.6 | 0.00 | 1.68 | 0.00 | 81 | 1012.3 |
| 20260906154100 | 32 | 179 | 0.0 | 3.2 | 0.00 | 1.68 | 0.00 | 79 | 1012.3 |
| 20260906153602 | 31 | 221 | 0.0 | 4.8 | 0.00 | 1.68 | 0.00 | 82 | 1012.3 |
| 20260906153057 | 31 | 231 | 0.0 | 4.8 | 0.00 | 1.68 | 0.00 | 81 | 1012.4 |
| 20260906152555 | 31 | 132 | 0.0 | 4.8 | 0.00 | 1.68 | 0.00 | 81 | 1012.5 |
| 20260906152053 | 31 | 263 | 0.0 | 4.8 | 0.00 | 1.68 | 0.00 | 82 | 1012.5 |
| 20260906151554 | 31 | 318 | 0.0 | 4.8 | 0.00 | 1.68 | 0.00 | 82 | 1012.5 |
| 20260906151049 | 31 | 205 | 0.0 | 6.4 | 0.00 | 1.68 | 0.00 | 83 | 1012.4 |
| 20260906150548 | 31 | 243 | 0.0 | 6.4 | 0.00 | 1.68 | 0.00 | 82 | 1012.4 |
| 20260906150047 | 31 | 248 | 0.0 | 4.8 | 0.00 | 1.68 | 0.00 | 83 | 1012.4 |
| 20260906145544 | 30 | 233 | 0.0 | 4.8 | 0.00 | 1.68 | 0.00 | 84 | 1012.4 |
| 20260906145042 | 30 | 234 | 0.0 | 8.0 | 0.00 | 1.68 | 0.00 | 84 | 1012.3 |
| 20260906144541 | 30 | 150 | 0.0 | 8.0 | 0.00 | 1.68 | 0.00 | 84 | 1012.4 |
| 20260906144038 | 30 | 244 | 0.0 | 9.7 | 0.00 | 1.68 | 0.00 | 86 | 1012.4 |
| 20260906143538 | 30 | 255 | 0.0 | 9.7 | 0.00 | 1.68 | 0.00 | 85 | 1012.3 |
| 20260906143038 | 30 | 227 | 0.0 | 8.0 | 0.00 | 1.68 | 0.00 | 85 | 1012.3 |
| 20260906142535 | 30 | 264 | 0.0 | 3.2 | 0.00 | 1.68 | 0.00 | 86 | 1012.2 |
| 20260906142034 | 29 | 231 | 0.0 | 4.8 | 0.00 | 1.68 | 0.00 | 85 | 1012.3 |
| 20260906141532 | 29 | 250 | 0.0 | 8.0 | 0.00 | 1.68 | 0.00 | 86 | 1012.4 |
| 20260906141030 | 29 | 275 | 0.0 | 8.0 | 0.00 | 1.68 | 0.00 | 87 | 1012.4 |
| 20260906140529 | 28 | 288 | 0.0 | 9.7 | 0.00 | 1.68 | 0.00 | 86 | 1012.4 |
| 20260906140032 | 28 | 241 | 1.6 | 9.7 | 0.00 | 1.68 | 0.00 | 87 | 1012.3 |
| 20260906135528 | 28 | 243 | 1.6 | 9.7 | 0.00 | 1.70 | 0.00 | 87 | 1012.2 |
| 20260906135026 | 28 | 233 | 3.2 | 9.7 | 0.00 | 1.70 | 0.00 | 87 | 1012.2 |
| 20260906134522 | 28 | 262 | 1.6 | 6.4 | 0.00 | 1.70 | 0.00 | 88 | 1012.3 |
| 20260906134023 | 28 | 263 | 0.0 | 4.8 | 0.00 | 1.70 | 0.00 | 88 | 1012.4 |
| 20260906133518 | 27 | 190 | 0.0 | 9.7 | 0.00 | 1.70 | 0.00 | 89 | 1012.4 |
| 20260906133017 | 27 | 217 | 0.0 | 9.7 | 0.00 | 1.70 | 0.00 | 89 | 1012.4 |
| 20260906132517 | 27 | 228 | 1.6 | 8.0 | 0.00 | 1.70 | 0.00 | 89 | 1012.4 |
| 20260906132013 | 27 | 256 | 1.6 | 6.4 | 0.00 | 1.70 | 0.00 | 90 | 1012.5 |
| 20260906131524 | 27 | 259 | 0.0 | 4.8 | 0.00 | 1.70 | 0.00 | 91 | 1012.5 |
| 20260906131111 | 27 | 266 | 0.0 | 3.2 | 0.00 | 1.70 | 0.00 | 91 | 1012.6 |
| 20260906130508 | 26 | 241 | 0.0 | 3.2 | 0.00 | 1.70 | 0.00 | 91 | 1012.6 |
| 20260906130006 | 26 | 231 | 0.0 | 3.2 | 0.00 | 1.70 | 0.00 | 92 | 1012.6 |
| 20260906125505 | 26 | 241 | 0.0 | 3.2 | 0.00 | 1.70 | 0.00 | 92 | 1012.6 |
| 20260906125004 | 26 | 234 | 0.0 | 8.0 | 0.00 | 1.70 | 0.00 | 92 | 1012.5 |
| 20260906124502 | 26 | 328 | 0.0 | 8.0 | 0.00 | 1.70 | 0.00 | 92 | 1012.5 |
| 20260906124002 | 26 | 247 | 0.0 | 4.8 | 0.00 | 1.70 | 0.00 | 93 | 1012.4 |
| 20260906123500 | 26 | 231 | 0.0 | 3.2 | 0.00 | 1.70 | 0.00 | 93 | 1012.4 |
| 20260906123059 | 26 | 231 | 0.0 | 3.2 | 0.00 | 1.70 | 0.00 | 93 | 1012.4 |
| 20260906122601 | 25 | 305 | 0.0 | 4.8 | 0.00 | 1.70 | 0.00 | 93 | 1012.4 |
| 20260906122056 | 25 | 255 | 0.0 | 6.4 | 0.00 | 1.70 | 0.00 | 94 | 1012.3 |
| 20260906121557 | 25 | 210 | 0.0 | 6.4 | 0.00 | 1.70 | 0.00 | 94 | 1012.3 |
| 20260906121054 | 25 | 252 | 0.0 | 4.8 | 0.00 | 1.70 | 0.00 | 95 | 1012.2 |
| 20260906120557 | 25 | 241 | 0.0 | 3.2 | 0.00 | 1.70 | 0.00 | 95 | 1012.3 |
| 20260906120110 | 25 | 232 | 0.0 | 0.0 | 0.00 | 1.70 | 0.00 | 95 | 1012.3 |
| 20260906115552 | 25 | 232 | 0.0 | 0.0 | 0.00 | 1.70 | 0.00 | 94 | 1012.4 |
| 20260906115051 | 25 | 232 | 0.0 | 0.0 | 0.00 | 1.70 | 0.00 | 94 | 1012.4 |
| 20260906114550 | 25 | 232 | 0.0 | 0.0 | 0.00 | 1.70 | 0.00 | 94 | 1012.3 |
| 20260906114050 | 25 | 232 | 0.0 | 0.0 | 0.00 | 1.70 | 0.00 | 94 | 1012.3 |
| 20260906113549 | 25 | 232 | 0.0 | 0.0 | 0.00 | 1.70 | 0.00 | 94 | 1012.0 |
| 20260906113054 | 25 | 232 | 0.0 | 0.0 | 0.00 | 1.70 | 0.00 | 94 | 1012.0 |
| 20260906112548 | 25 | 232 | 0.0 | 0.0 | 0.00 | 1.70 | 0.00 | 94 | 1011.9 |
| 20260906112048 | 25 | 232 | 0.0 | 0.0 | 0.00 | 1.70 | 0.00 | 94 | 1011.9 |
| 20260906111604 | 25 | 232 | 0.0 | 1.6 | 0.00 | 1.70 | 0.00 | 94 | 1011.9 |
| 20260906111046 | 25 | 233 | 0.0 | 1.6 | 0.00 | 1.70 | 0.00 | 94 | 1011.7 |
| 20260906110547 | 25 | 225 | 0.0 | 0.0 | 0.00 | 1.70 | 0.00 | 94 | 1011.7 |
| 20260906110044 | 25 | 225 | 0.0 | 3.2 | 0.00 | 1.70 | 0.00 | 94 | 1011.7 |
| 20260906105544 | 25 | 225 | 0.0 | 3.2 | 0.00 | 1.70 | 0.00 | 94 | 1011.5 |
| 20260906105044 | 25 | 248 | 0.0 | 0.0 | 0.00 | 1.70 | 0.00 | 94 | 1011.5 |
| 20260906104543 | 25 | 248 | 0.0 | 1.6 | 0.00 | 1.70 | 0.00 | 94 | 1011.4 |
| 20260906104042 | 25 | 248 | 0.0 | 3.2 | 0.00 | 1.70 | 0.00 | 94 | 1011.4 |
| 20260906103545 | 25 | 207 | 0.0 | 3.2 | 0.00 | 1.70 | 0.00 | 94 | 1011.4 |
| 20260906103043 | 25 | 236 | 0.0 | 1.6 | 0.00 | 1.70 | 0.00 | 94 | 1011.4 |
| 20260906102541 | 25 | 232 | 0.0 | 1.6 | 0.00 | 1.70 | 0.00 | 94 | 1011.4 |
| 20260906102043 | 25 | 309 | 0.0 | 1.6 | 0.00 | 1.70 | 0.00 | 95 | 1011.3 |
| 20260906101540 | 25 | 279 | 0.0 | 1.6 | 0.00 | 1.70 | 0.00 | 94 | 1011.3 |
| 20260906101038 | 25 | 281 | 0.0 | 0.0 | 0.00 | 1.70 | 0.00 | 95 | 1011.2 |
| 20260906100540 | 25 | 281 | 0.0 | 3.2 | 0.00 | 1.70 | 0.00 | 95 | 1011.2 |
| 20260906100037 | 25 | 281 | 0.0 | 3.2 | 0.00 | 1.70 | 0.00 | 95 | 1011.3 |
| 20260906095536 | 25 | 247 | 0.0 | 1.6 | 0.00 | 1.70 | 0.00 | 95 | 1011.2 |
| 20260906095037 | 25 | 245 | 0.0 | 3.2 | 0.00 | 1.70 | 0.00 | 95 | 1011.3 |
| 20260906094539 | 25 | 245 | 0.0 | 3.2 | 0.00 | 1.70 | 0.00 | 95 | 1011.2 |
| 20260906094036 | 25 | 243 | 0.0 | 1.6 | 0.00 | 1.70 | 0.00 | 95 | 1011.2 |
| 20260906093534 | 25 | 252 | 0.0 | 0.0 | 0.00 | 1.70 | 0.00 | 95 | 1011.2 |
| 20260906093039 | 25 | 252 | 0.0 | 1.6 | 0.00 | 1.70 | 0.00 | 95 | 1011.2 |
| 20260906092535 | 25 | 252 | 0.0 | 1.6 | 0.00 | 1.70 | 0.00 | 95 | 1011.3 |
| 20260906092032 | 25 | 252 | 0.0 | 1.6 | 0.00 | 1.70 | 0.00 | 95 | 1011.1 |
| 20260906091534 | 25 | 255 | 0.0 | 0.0 | 0.00 | 1.70 | 0.00 | 95 | 1011.1 |
| 20260906091031 | 25 | 254 | 0.0 | 0.0 | 0.00 | 1.70 | 0.00 | 95 | 1011.1 |
| 20260906090531 | 25 | 254 | 0.0 | 0.0 | 0.00 | 1.70 | 0.00 | 95 | 1011.1 |
| 20260906090029 | 25 | 254 | 0.0 | 0.0 | 0.00 | 1.70 | 0.00 | 95 | 1011.1 |
| 20260906085529 | 25 | 254 | 0.0 | 0.0 | 0.00 | 1.70 | 0.00 | 95 | 1011.0 |
| 20260906085032 | 25 | 254 | 0.0 | 0.0 | 0.00 | 1.70 | 0.00 | 95 | 1011.0 |
| 20260906084543 | 25 | 254 | 0.0 | 0.0 | 0.00 | 1.70 | 0.00 | 95 | 1011.1 |
| 20260906084025 | 25 | 255 | 0.0 | 0.0 | 0.00 | 1.70 | 0.00 | 95 | 1011.2 |
| 20260906083526 | 25 | 254 | 0.0 | 0.0 | 0.00 | 1.70 | 0.00 | 95 | 1011.1 |
| 20260906083034 | 25 | 254 | 0.0 | 1.6 | 0.00 | 1.70 | 0.00 | 95 | 1011.0 |
| 20260906082524 | 25 | 255 | 0.0 | 1.6 | 0.00 | 1.70 | 0.00 | 95 | 1010.9 |
| 20260906082026 | 25 | 254 | 0.0 | 0.0 | 0.00 | 1.70 | 0.00 | 95 | 1010.9 |
| 20260906081523 | 25 | 255 | 0.0 | 0.0 | 0.00 | 1.70 | 0.00 | 94 | 1011.0 |
| 20260906081022 | 25 | 255 | 0.0 | 0.0 | 0.00 | 1.70 | 0.00 | 95 | 1010.9 |
| 20260906080521 | 25 | 254 | 0.0 | 0.0 | 0.00 | 1.70 | 0.00 | 95 | 1011.0 |
| 20260906080028 | 25 | 255 | 0.0 | 0.0 | 0.00 | 1.70 | 0.00 | 94 | 1010.9 |
| 20260906075522 | 25 | 255 | 0.0 | 0.0 | 0.00 | 1.70 | 0.00 | 94 | 1011.0 |
| 20260906075020 | 25 | 255 | 0.0 | 0.0 | 0.00 | 1.70 | 0.00 | 94 | 1010.9 |
| 20260906074519 | 25 | 255 | 0.0 | 0.0 | 0.00 | 1.70 | 0.00 | 95 | 1010.9 |
| 20260906074022 | 25 | 252 | 0.0 | 0.0 | 0.00 | 1.70 | 0.00 | 95 | 1010.9 |
| 20260906073518 | 25 | 252 | 0.0 | 0.0 | 0.00 | 1.70 | 0.00 | 94 | 1011.0 |
| 20260906073017 | 25 | 271 | 0.0 | 0.0 | 0.00 | 1.70 | 0.00 | 94 | 1011.0 |
| 20260906072517 | 25 | 271 | 0.0 | 0.0 | 0.00 | 1.70 | 0.00 | 94 | 1011.0 |
| 20260906072015 | 25 | 271 | 0.0 | 0.0 | 0.00 | 1.70 | 0.00 | 94 | 1011.1 |
| 20260906071515 | 25 | 271 | 0.0 | 0.0 | 0.00 | 1.70 | 0.00 | 94 | 1011.0 |
| 20260906071013 | 25 | 271 | 0.0 | 3.2 | 0.00 | 1.70 | 0.00 | 94 | 1010.9 |
| 20260906070512 | 25 | 271 | 0.0 | 3.2 | 0.00 | 1.70 | 0.00 | 94 | 1011.0 |
| 20260906070012 | 25 | 247 | 0.0 | 0.0 | 0.00 | 1.70 | 0.00 | 94 | 1011.0 |
| 20260906065512 | 25 | 247 | 0.0 | 3.2 | 0.00 | 1.70 | 0.00 | 94 | 1011.0 |
| 20260906065011 | 25 | 247 | 0.0 | 3.2 | 0.00 | 1.70 | 0.00 | 94 | 1010.9 |
| 20260906064514 | 25 | 278 | 0.0 | 3.2 | 0.00 | 1.70 | 0.00 | 94 | 1010.9 |
| 20260906064010 | 25 | 278 | 0.0 | 3.2 | 0.00 | 1.70 | 0.00 | 94 | 1010.9 |
| 20260906063509 | 25 | 223 | 0.0 | 3.2 | 0.00 | 1.70 | 0.00 | 94 | 1011.0 |
| 20260906063008 | 25 | 223 | 0.0 | 3.2 | 0.00 | 1.70 | 0.00 | 95 | 1010.9 |
| 20260906062507 | 25 | 254 | 0.0 | 3.2 | 0.00 | 1.70 | 0.00 | 95 | 1011.0 |
| 20260906062005 | 25 | 245 | 0.0 | 1.6 | 0.00 | 1.70 | 0.00 | 95 | 1011.1 |
| 20260906061505 | 25 | 269 | 0.0 | 1.6 | 0.00 | 1.70 | 0.00 | 95 | 1011.2 |
| 20260906061004 | 25 | 289 | 0.0 | 1.6 | 0.00 | 1.70 | 0.00 | 95 | 1011.2 |
| 20260906060506 | 25 | 283 | 0.0 | 1.6 | 0.00 | 1.70 | 0.00 | 95 | 1011.3 |
| 20260906060002 | 25 | 244 | 0.0 | 0.0 | 0.00 | 1.70 | 0.00 | 95 | 1011.2 |
| 20260906055502 | 25 | 244 | 0.0 | 1.6 | 0.00 | 1.70 | 0.00 | 95 | 1011.3 |
| 20260906055100 | 25 | 228 | 0.0 | 1.6 | 0.00 | 1.70 | 0.00 | 95 | 1011.4 |
| 20260906054602 | 25 | 195 | 0.0 | 1.6 | 0.00 | 1.70 | 0.00 | 95 | 1011.4 |
| 20260906054059 | 25 | 258 | 0.0 | 1.6 | 0.00 | 1.70 | 0.00 | 95 | 1011.3 |
| 20260906053558 | 25 | 258 | 0.0 | 1.6 | 0.00 | 1.70 | 0.00 | 95 | 1011.5 |
| 20260906053057 | 25 | 235 | 0.0 | 0.0 | 0.00 | 1.70 | 0.00 | 95 | 1011.5 |
| 20260906052556 | 25 | 235 | 0.0 | 0.0 | 0.00 | 1.70 | 0.00 | 95 | 1011.6 |
| 20260906052056 | 25 | 235 | 0.0 | 0.0 | 0.00 | 1.70 | 0.00 | 95 | 1011.5 |
| 20260906051605 | 25 | 235 | 0.0 | 0.0 | 0.00 | 1.70 | 0.00 | 95 | 1011.6 |
| 20260906051055 | 25 | 235 | 0.0 | 0.0 | 0.00 | 1.70 | 0.00 | 95 | 1011.5 |
| 20260906050554 | 25 | 235 | 0.0 | 0.0 | 0.00 | 1.70 | 0.00 | 95 | 1011.7 |
| 20260906050052 | 25 | 235 | 0.0 | 1.6 | 0.00 | 1.70 | 0.00 | 95 | 1011.7 |
| 20260906045554 | 25 | 235 | 0.0 | 1.6 | 0.00 | 1.70 | 0.00 | 95 | 1011.8 |
| 20260906045050 | 25 | 251 | 0.0 | 1.6 | 0.00 | 1.70 | 0.00 | 95 | 1011.8 |
| 20260906044550 | 25 | 330 | 0.0 | 1.6 | 0.00 | 1.70 | 0.00 | 95 | 1011.8 |
| 20260906044047 | 25 | 331 | 0.0 | 1.6 | 0.00 | 1.70 | 0.00 | 95 | 1011.9 |
| 20260906043547 | 25 | 201 | 0.0 | 0.0 | 0.00 | 1.70 | 0.00 | 95 | 1011.9 |
| 20260906043046 | 25 | 201 | 0.0 | 0.0 | 0.00 | 1.70 | 0.00 | 95 | 1012.0 |
| 20260906042545 | 25 | 201 | 0.0 | 0.0 | 0.00 | 1.70 | 0.00 | 95 | 1012.0 |
| 20260906042043 | 25 | 194 | 0.0 | 0.0 | 0.00 | 1.70 | 0.00 | 95 | 1012.1 |
| 20260906041542 | 25 | 194 | 0.0 | 0.0 | 0.00 | 1.70 | 0.00 | 95 | 1012.3 |
| 20260906041041 | 25 | 194 | 0.0 | 0.0 | 0.00 | 1.70 | 0.00 | 95 | 1012.2 |
| 20260906040540 | 25 | 194 | 0.0 | 0.0 | 0.00 | 1.70 | 0.00 | 95 | 1012.2 |
| 20260906040039 | 25 | 194 | 0.0 | 0.0 | 0.00 | 1.70 | 0.00 | 95 | 1012.2 |
| 20260906035539 | 25 | 194 | 0.0 | 0.0 | 0.00 | 1.70 | 1.70 | 95 | 1012.2 |
| 20260906035037 | 25 | 195 | 0.0 | 0.0 | 0.00 | 1.70 | 1.70 | 95 | 1012.2 |
| 20260906034544 | 25 | 200 | 0.0 | 0.0 | 0.00 | 1.70 | 1.70 | 95 | 1012.2 |
| 20260906034035 | 25 | 200 | 0.0 | 0.0 | 0.00 | 1.70 | 1.70 | 95 | 1012.3 |
| 20260906033536 | 25 | 200 | 0.0 | 0.0 | 0.00 | 1.70 | 1.70 | 95 | 1012.3 |
| 20260906033034 | 25 | 200 | 0.0 | 0.0 | 0.00 | 1.70 | 1.70 | 95 | 1012.4 |
| 20260906032533 | 25 | 200 | 0.0 | 0.0 | 0.00 | 1.70 | 1.70 | 95 | 1012.5 |
| 20260906032033 | 25 | 200 | 0.0 | 0.0 | 0.00 | 1.70 | 1.70 | 95 | 1012.5 |
| 20260906031534 | 25 | 200 | 0.0 | 0.0 | 0.00 | 1.70 | 1.70 | 95 | 1012.5 |
| 20260906031032 | 25 | 200 | 0.0 | 0.0 | 0.00 | 1.70 | 1.70 | 95 | 1012.5 |
| 20260906030531 | 25 | 200 | 0.0 | 0.0 | 0.00 | 1.70 | 1.70 | 95 | 1012.6 |
| 20260906030031 | 25 | 200 | 0.0 | 0.0 | 0.00 | 1.70 | 1.70 | 95 | 1012.6 |
| 20260906025534 | 25 | 200 | 0.0 | 0.0 | 0.00 | 1.70 | 1.70 | 95 | 1012.4 |
| 20260906025030 | 25 | 200 | 0.0 | 0.0 | 0.00 | 1.70 | 1.70 | 95 | 1012.4 |
| 20260906024529 | 25 | 200 | 0.0 | 0.0 | 0.00 | 1.70 | 1.70 | 94 | 1012.4 |
| 20260906024032 | 25 | 200 | 0.0 | 0.0 | 0.00 | 1.70 | 1.70 | 94 | 1012.5 |
| 20260906023528 | 25 | 200 | 0.0 | 0.0 | 0.00 | 1.70 | 1.70 | 94 | 1012.7 |
| 20260906023027 | 25 | 200 | 0.0 | 0.0 | 0.00 | 1.70 | 1.70 | 94 | 1012.7 |
| 20260906022527 | 25 | 200 | 0.0 | 0.0 | 0.00 | 1.70 | 1.70 | 94 | 1012.7 |
| 20260906022028 | 25 | 200 | 0.0 | 0.0 | 0.00 | 1.70 | 1.70 | 94 | 1012.6 |
| 20260906021526 | 25 | 200 | 0.0 | 0.0 | 0.00 | 1.70 | 1.70 | 94 | 1012.5 |
| 20260906021025 | 25 | 200 | 0.0 | 0.0 | 0.00 | 1.70 | 1.70 | 94 | 1012.5 |
| 20260906020524 | 25 | 200 | 0.0 | 0.0 | 0.00 | 1.70 | 1.70 | 94 | 1012.4 |
| 20260906020025 | 25 | 200 | 0.0 | 0.0 | 0.00 | 1.70 | 1.70 | 94 | 1012.2 |
| 20260906015524 | 25 | 200 | 0.0 | 0.0 | 0.00 | 1.70 | 1.70 | 94 | 1012.1 |
| 20260906015024 | 25 | 200 | 0.0 | 0.0 | 0.00 | 1.70 | 1.70 | 94 | 1012.0 |
| 20260906014535 | 25 | 200 | 0.0 | 0.0 | 0.00 | 1.70 | 1.70 | 94 | 1011.8 |
| 20260906014025 | 25 | 200 | 0.0 | 0.0 | 0.00 | 1.70 | 1.70 | 94 | 1011.9 |
| 20260906013522 | 25 | 200 | 0.0 | 0.0 | 0.00 | 1.70 | 1.70 | 94 | 1011.8 |
| 20260906013021 | 25 | 200 | 0.0 | 0.0 | 0.00 | 1.70 | 1.70 | 94 | 1011.7 |
| 20260906012520 | 25 | 200 | 0.0 | 0.0 | 0.00 | 1.70 | 1.70 | 94 | 1011.8 |
| 20260906012019 | 25 | 200 | 0.0 | 0.0 | 0.00 | 1.70 | 1.70 | 94 | 1011.8 |
| 20260906011533 | 25 | 200 | 0.0 | 0.0 | 0.00 | 1.70 | 1.70 | 94 | 1011.8 |
| 20260906011018 | 25 | 200 | 0.0 | 0.0 | 0.00 | 1.70 | 1.70 | 93 | 1011.8 |
| 20260906010517 | 25 | 200 | 0.0 | 0.0 | 0.00 | 1.70 | 1.70 | 93 | 1011.7 |
| 20260906010017 | 25 | 200 | 0.0 | 0.0 | 0.00 | 1.70 | 1.70 | 93 | 1011.5 |
| 20260906005515 | 25 | 195 | 0.0 | 0.0 | 0.00 | 1.70 | 1.70 | 93 | 1011.4 |
| 20260906005018 | 25 | 195 | 0.0 | 0.0 | 0.00 | 1.70 | 1.70 | 93 | 1011.3 |
| 20260906004526 | 25 | 195 | 0.0 | 0.0 | 0.00 | 1.70 | 1.70 | 93 | 1011.3 |
| 20260906004015 | 25 | 229 | 0.0 | 0.0 | 0.00 | 1.70 | 1.70 | 93 | 1011.3 |
| 20260906003513 | 26 | 229 | 0.0 | 0.0 | 0.00 | 1.70 | 1.70 | 93 | 1011.3 |
| 20260906003013 | 26 | 230 | 0.0 | 1.6 | 0.00 | 1.70 | 1.70 | 92 | 1011.2 |
| 20260906002512 | 26 | 224 | 0.0 | 1.6 | 0.00 | 1.70 | 1.70 | 92 | 1011.1 |
| 20260906002012 | 26 | 110 | 0.0 | 0.0 | 0.00 | 1.70 | 1.70 | 92 | 1011.2 |
| 20260906001511 | 26 | 110 | 0.0 | 1.6 | 0.00 | 1.70 | 1.70 | 92 | 1011.2 |
| 20260906001011 | 26 | 113 | 0.0 | 1.6 | 0.00 | 1.70 | 1.70 | 92 | 1011.1 |
| 20260906000515 | 26 | 53 | 0.0 | 0.0 | 0.00 | 1.70 | 1.70 | 91 | 1011.0 |
| 20260906000010 | 26 | 53 | 0.0 | 0.0 | 0.00 | 1.70 | 1.70 | 91 | 1010.9 |
| 20260905235509 | 26 | 53 | 0.0 | 0.0 | 0.00 | 1.70 | 1.70 | 91 | 1010.9 |
| 20260905235009 | 26 | 53 | 0.0 | 0.0 | 0.00 | 1.70 | 1.70 | 91 | 1011.0 |
| 20260905234508 | 26 | 53 | 0.0 | 0.0 | 0.00 | 1.70 | 1.70 | 91 | 1010.9 |
| 20260905234009 | 26 | 63 | 0.0 | 0.0 | 0.00 | 1.70 | 1.70 | 91 | 1010.8 |
| 20260905233507 | 27 | 68 | 0.0 | 0.0 | 0.00 | 1.70 | 1.70 | 91 | 1010.6 |
| 20260905233007 | 27 | 68 | 0.0 | 0.0 | 0.00 | 1.70 | 1.70 | 91 | 1010.7 |
| 20260905232505 | 27 | 68 | 0.0 | 0.0 | 0.00 | 1.70 | 1.70 | 90 | 1010.9 |
| 20260905232008 | 27 | 68 | 0.0 | 0.0 | 0.00 | 1.70 | 1.70 | 90 | 1010.8 |
| 20260905231503 | 27 | 68 | 0.0 | 0.0 | 0.00 | 1.70 | 1.70 | 90 | 1011.0 |
| 20260905231002 | 27 | 70 | 0.0 | 0.0 | 0.00 | 1.70 | 1.70 | 90 | 1010.9 |
| 20260905230503 | 27 | 63 | 0.0 | 0.0 | 0.00 | 1.70 | 1.70 | 90 | 1011.0 |
| 20260905230100 | 27 | 63 | 0.0 | 0.0 | 0.00 | 1.70 | 1.70 | 90 | 1011.1 |
| 20260905225559 | 27 | 63 | 0.0 | 0.0 | 0.00 | 1.73 | 1.70 | 90 | 1011.2 |
| 20260905225059 | 27 | 63 | 0.0 | 0.0 | 0.00 | 1.73 | 1.70 | 90 | 1011.2 |
| 20260905224558 | 27 | 63 | 0.0 | 0.0 | 0.00 | 1.73 | 1.70 | 90 | 1011.4 |
| 20260905224058 | 27 | 63 | 0.0 | 0.0 | 0.00 | 1.73 | 1.70 | 91 | 1011.4 |
| 20260905223556 | 27 | 63 | 0.0 | 0.0 | 0.00 | 1.73 | 1.70 | 91 | 1011.4 |
| 20260905223056 | 27 | 63 | 0.0 | 0.0 | 0.00 | 1.73 | 1.70 | 91 | 1011.4 |
| 20260905222555 | 27 | 63 | 0.0 | 0.0 | 0.00 | 1.73 | 1.70 | 91 | 1011.4 |
| 20260905222054 | 27 | 63 | 0.0 | 0.0 | 0.00 | 1.73 | 1.70 | 92 | 1011.4 |
| 20260905221553 | 26 | 64 | 0.0 | 0.0 | 0.00 | 1.73 | 1.70 | 93 | 1011.6 |
| 20260905221053 | 26 | 43 | 0.0 | 0.0 | 0.00 | 1.73 | 1.70 | 95 | 1011.7 |
| 20260905220552 | 26 | 43 | 0.0 | 1.6 | 0.00 | 1.73 | 1.70 | 95 | 1011.7 |
| 20260905220051 | 26 | 43 | 0.0 | 1.6 | 0.00 | 1.73 | 1.70 | 94 | 1011.6 |
| 20260905215551 | 25 | 103 | 0.0 | 0.0 | 0.00 | 1.83 | 1.70 | 95 | 1011.5 |
| 20260905215050 | 25 | 78 | 0.0 | 0.0 | 0.00 | 1.83 | 1.70 | 95 | 1011.5 |
| 20260905214549 | 25 | 78 | 0.0 | 0.0 | 0.00 | 1.83 | 1.70 | 95 | 1011.6 |
| 20260905214049 | 25 | 41 | 0.0 | 0.0 | 0.00 | 1.83 | 1.70 | 95 | 1011.5 |
| 20260905213550 | 25 | 127 | 0.0 | 0.0 | 0.00 | 1.83 | 1.70 | 95 | 1011.5 |